Volver al catálogo

DELTA 1 DEB

ActivoSSO
NORAD 7023·DEBRIS·🇺🇸 United States

Lanzado Nov 6, 1973 desde Vandenberg Space Force Base

Loading…

Próximos Pases (próximas 24 horas)

TLE

ActualizadoSource: Space-Track

Época: Sep 14, 2026, 09:30 UTC

1 07023U 73086P   26257.39608392 -.00000008  00000-0  29639-3 0  9999
2 07023 102.3563 232.9341 0027218 216.0210 301.7413 12.36377760383432

Sigue DELTA 1 DEB en tiempo real con AllMySat

Download on the App Store